| time (UTC) | temp F | wind direction | speed MPH | gust MPH | rain 1hr in | rain 24hr in | rain mn in | humidity % | barometer mb |
| 20260506071102 | 50 | 309 | 0.0 | 0.0 | 0.00 | 0.00 | 0.00 | 99 | 1018.1 |
| 20260506070559 | 50 | 309 | 0.0 | 0.0 | 0.00 | 0.00 | 0.00 | 99 | 1018.1 |
| 20260506062034 | 51 | 246 | 2.0 | 2.0 | 0.00 | 0.03 | 0.03 | 99 | 1017.9 |
| 20260506061529 | 51 | 282 | 1.0 | 1.0 | 0.00 | 0.03 | 0.03 | 99 | 1017.7 |
| 20260506061027 | 51 | 306 | 0.0 | 1.0 | 0.00 | 0.03 | 0.03 | 99 | 1017.9 |
| 20260506060526 | 51 | 280 | 1.0 | 1.0 | 0.00 | 0.03 | 0.03 | 99 | 1017.6 |
| 20260506050954 | 50 | 262 | 1.0 | 2.0 | 0.00 | 0.03 | 0.03 | 99 | 1017.5 |
| 20260506050452 | 50 | 289 | 0.0 | 0.0 | 0.00 | 0.03 | 0.03 | 99 | 1017.3 |
| 20260506044942 | 50 | 278 | 1.0 | 1.0 | 0.00 | 0.03 | 0.03 | 99 | 1017.4 |
| 20260506044441 | 50 | 265 | 1.0 | 2.0 | 0.00 | 0.03 | 0.03 | 98 | 1017.2 |
| 20260506043937 | 50 | 275 | 0.0 | 1.0 | 0.00 | 0.03 | 0.03 | 98 | 1017.1 |
| 20260506043434 | 50 | 269 | 1.0 | 1.0 | 0.00 | 0.03 | 0.03 | 98 | 1017.1 |
| 20260506042932 | 50 | 281 | 1.0 | 1.0 | 0.00 | 0.03 | 0.03 | 98 | 1017.1 |
| 20260506042431 | 50 | 274 | 0.0 | 0.0 | 0.00 | 0.03 | 0.03 | 98 | 1017.2 |
| 20260506041929 | 50 | 272 | 1.0 | 1.0 | 0.00 | 0.03 | 0.03 | 97 | 1016.8 |
| 20260506041427 | 50 | 281 | 0.0 | 0.0 | 0.00 | 0.03 | 0.03 | 97 | 1016.9 |
| 20260506040924 | 51 | 272 | 0.0 | 0.0 | 0.00 | 0.03 | 0.03 | 97 | 1016.8 |
| 20260506040421 | 51 | 275 | 1.0 | 1.0 | 0.00 | 0.03 | 0.03 | 96 | 1016.6 |
| 20260506035917 | 51 | 277 | 0.0 | 0.0 | 0.00 | 0.03 | 0.03 | 96 | 1016.6 |
| 20260506035415 | 51 | 270 | 1.0 | 1.0 | 0.00 | 0.03 | 0.03 | 96 | 1016.6 |
| 20260506034911 | 52 | 284 | 0.0 | 0.0 | 0.00 | 0.03 | 0.03 | 95 | 1016.6 |
| 20260506034408 | 52 | 283 | 0.0 | 0.0 | 0.00 | 0.03 | 0.03 | 95 | 1016.6 |
| 20260506033905 | 52 | 269 | 0.0 | 0.0 | 0.00 | 0.03 | 0.03 | 95 | 1016.4 |
| 20260506033403 | 52 | 276 | 0.0 | 0.0 | 0.00 | 0.03 | 0.03 | 94 | 1016.2 |
| 20260506032859 | 52 | 276 | 0.0 | 0.0 | 0.00 | 0.03 | 0.03 | 94 | 1016.0 |
| 20260506032356 | 52 | 276 | 0.0 | 0.0 | 0.00 | 0.03 | 0.03 | 94 | 1016.1 |
| 20260506031853 | 53 | 283 | 0.0 | 0.0 | 0.00 | 0.03 | 0.03 | 93 | 1015.9 |
| 20260506031350 | 53 | 282 | 0.0 | 0.0 | 0.00 | 0.03 | 0.03 | 92 | 1015.8 |
| 20260506030848 | 54 | 273 | 0.0 | 0.0 | 0.00 | 0.03 | 0.03 | 91 | 1015.7 |
| 20260506030346 | 54 | 274 | 0.0 | 0.0 | 0.00 | 0.03 | 0.03 | 90 | 1015.8 |
| 20260506025842 | 55 | 299 | 0.0 | 0.0 | 0.00 | 0.03 | 0.03 | 89 | 1015.8 |
| 20260506025339 | 55 | 262 | 0.0 | 1.0 | 0.00 | 0.03 | 0.03 | 89 | 1015.7 |
| 20260506024836 | 55 | 69 | 1.0 | 1.0 | 0.00 | 0.03 | 0.03 | 89 | 1015.4 |
| 20260506024333 | 55 | 292 | 1.0 | 1.0 | 0.00 | 0.03 | 0.03 | 88 | 1015.5 |
| 20260506023829 | 55 | 284 | 1.0 | 1.0 | 0.00 | 0.03 | 0.03 | 88 | 1015.3 |
| 20260506023326 | 56 | 269 | 1.0 | 1.0 | 0.00 | 0.03 | 0.03 | 88 | 1015.3 |
| 20260506022822 | 56 | 298 | 0.0 | 0.0 | 0.00 | 0.03 | 0.03 | 87 | 1015.3 |
| 20260506022320 | 56 | 315 | 0.0 | 0.0 | 0.00 | 0.03 | 0.03 | 87 | 1015.3 |
| 20260506021819 | 56 | 305 | 1.0 | 2.0 | 0.00 | 0.03 | 0.03 | 87 | 1015.1 |
| 20260506021315 | 56 | 293 | 1.0 | 2.0 | 0.00 | 0.03 | 0.03 | 86 | 1015.2 |
| 20260506020811 | 56 | 250 | 3.0 | 5.0 | 0.00 | 0.03 | 0.03 | 85 | 1015.3 |
| 20260506020309 | 57 | 297 | 2.0 | 2.0 | 0.00 | 0.03 | 0.03 | 84 | 1015.0 |
| 20260506015807 | 57 | 291 | 4.0 | 6.0 | 0.00 | 0.03 | 0.03 | 83 | 1015.2 |
| 20260506015306 | 57 | 264 | 3.0 | 3.0 | 0.00 | 0.03 | 0.03 | 85 | 1015.0 |
| 20260506014801 | 57 | 323 | 1.0 | 1.0 | 0.00 | 0.03 | 0.03 | 84 | 1014.9 |
| 20260506014258 | 57 | 253 | 5.0 | 7.0 | 0.00 | 0.03 | 0.03 | 84 | 1014.9 |
| 20260506013754 | 57 | 289 | 1.0 | 1.0 | 0.00 | 0.03 | 0.03 | 85 | 1015.1 |
| 20260506013252 | 57 | 274 | 3.0 | 7.0 | 0.00 | 0.03 | 0.03 | 84 | 1015.0 |
| 20260506012748 | 57 | 224 | 3.0 | 5.0 | 0.00 | 0.03 | 0.03 | 85 | 1015.2 |
| 20260506012245 | 57 | 267 | 3.0 | 5.0 | 0.00 | 0.03 | 0.03 | 85 | 1015.0 |
| 20260506011743 | 57 | 272 | 5.0 | 8.0 | 0.00 | 0.03 | 0.03 | 85 | 1015.1 |
| 20260506011239 | 58 | 264 | 1.0 | 2.0 | 0.00 | 0.03 | 0.03 | 85 | 1015.1 |
| 20260506010737 | 58 | 241 | 2.0 | 2.0 | 0.00 | 0.03 | 0.03 | 84 | 1014.9 |
| 20260506010234 | 58 | 292 | 0.0 | 0.0 | 0.00 | 0.03 | 0.03 | 85 | 1015.0 |
| 20260506005731 | 58 | 255 | 1.0 | 1.0 | 0.00 | 0.03 | 0.03 | 85 | 1015.1 |
| 20260506005228 | 58 | 321 | 1.0 | 1.0 | 0.00 | 0.03 | 0.03 | 84 | 1015.2 |
| 20260506004724 | 58 | 237 | 1.0 | 3.0 | 0.00 | 0.03 | 0.03 | 83 | 1015.3 |
| 20260506004222 | 58 | 248 | 3.0 | 3.0 | 0.00 | 0.03 | 0.03 | 83 | 1015.0 |
| 20260506003717 | 58 | 261 | 3.0 | 5.0 | 0.00 | 0.03 | 0.03 | 83 | 1015.0 |
| 20260506003214 | 58 | 322 | 3.0 | 6.0 | 0.00 | 0.03 | 0.03 | 82 | 1015.1 |
| 20260506002710 | 58 | 288 | 3.0 | 5.0 | 0.00 | 0.03 | 0.03 | 83 | 1015.0 |
| 20260506002206 | 58 | 272 | 2.0 | 3.0 | 0.00 | 0.03 | 0.03 | 83 | 1014.9 |
| 20260506001702 | 58 | 266 | 4.0 | 5.0 | 0.00 | 0.03 | 0.03 | 83 | 1014.9 |
| 20260506001200 | 59 | 296 | 2.0 | 2.0 | 0.00 | 0.03 | 0.03 | 82 | 1014.9 |
| 20260506000656 | 59 | 306 | 4.0 | 5.0 | 0.00 | 0.03 | 0.03 | 81 | 1014.9 |
| 20260506000154 | 59 | 259 | 1.0 | 3.0 | 0.00 | 0.03 | 0.03 | 81 | 1014.9 |
| 20260505235652 | 60 | 285 | 2.0 | 3.0 | 0.00 | 0.03 | 0.03 | 81 | 1014.8 |
| 20260505235149 | 59 | 314 | 1.0 | 1.0 | 0.00 | 0.03 | 0.03 | 83 | 1014.9 |
| 20260505234646 | 59 | 282 | 3.0 | 3.0 | 0.00 | 0.03 | 0.03 | 82 | 1014.9 |
| 20260505234143 | 59 | 297 | 2.0 | 2.0 | 0.00 | 0.03 | 0.03 | 83 | 1014.7 |
| 20260505233639 | 60 | 279 | 1.0 | 2.0 | 0.00 | 0.03 | 0.03 | 81 | 1015.0 |
| 20260505233137 | 60 | 271 | 4.0 | 6.0 | 0.00 | 0.03 | 0.03 | 80 | 1014.9 |
| 20260505232635 | 59 | 254 | 3.0 | 5.0 | 0.00 | 0.03 | 0.03 | 82 | 1014.7 |
| 20260505232132 | 60 | 300 | 2.0 | 3.0 | 0.00 | 0.03 | 0.03 | 81 | 1015.0 |
| 20260505231629 | 60 | 272 | 4.0 | 6.0 | 0.00 | 0.03 | 0.03 | 81 | 1015.0 |
| 20260505231127 | 60 | 296 | 2.0 | 3.0 | 0.00 | 0.03 | 0.03 | 81 | 1015.0 |
| 20260505230625 | 60 | 287 | 4.0 | 5.0 | 0.00 | 0.03 | 0.03 | 81 | 1015.1 |
| 20260505230121 | 60 | 307 | 1.0 | 1.0 | 0.00 | 0.03 | 0.03 | 82 | 1015.0 |
| 20260505225618 | 61 | 299 | 2.0 | 3.0 | 0.00 | 0.03 | 0.03 | 80 | 1015.0 |
| 20260505225114 | 61 | 287 | 1.0 | 1.0 | 0.00 | 0.03 | 0.03 | 80 | 1015.1 |
| 20260505224611 | 61 | 284 | 3.0 | 3.0 | 0.00 | 0.03 | 0.03 | 81 | 1015.0 |
| 20260505224108 | 62 | 226 | 3.0 | 3.0 | 0.00 | 0.03 | 0.03 | 80 | 1015.0 |
| 20260505223605 | 63 | 247 | 2.0 | 3.0 | 0.00 | 0.03 | 0.03 | 79 | 1014.9 |
| 20260505223101 | 63 | 252 | 1.0 | 2.0 | 0.00 | 0.03 | 0.03 | 78 | 1015.0 |
| 20260505222558 | 63 | 254 | 3.0 | 3.0 | 0.00 | 0.03 | 0.03 | 79 | 1015.2 |
| 20260505222054 | 64 | 199 | 3.0 | 3.0 | 0.00 | 0.03 | 0.03 | 76 | 1015.0 |
| 20260505221551 | 63 | 302 | 3.0 | 3.0 | 0.00 | 0.03 | 0.03 | 79 | 1015.0 |
| 20260505221047 | 62 | 257 | 2.0 | 2.0 | 0.00 | 0.03 | 0.03 | 80 | 1015.1 |
| 20260505220545 | 62 | 284 | 1.0 | 2.0 | 0.00 | 0.03 | 0.03 | 81 | 1015.1 |
| 20260505220043 | 62 | 299 | 1.0 | 1.0 | 0.00 | 0.03 | 0.03 | 80 | 1015.1 |
| 20260505215541 | 62 | 276 | 2.0 | 2.0 | 0.00 | 0.03 | 0.03 | 80 | 1015.3 |
| 20260505215038 | 61 | 292 | 1.0 | 1.0 | 0.00 | 0.03 | 0.03 | 82 | 1015.2 |
| 20260505214536 | 61 | 219 | 2.0 | 2.0 | 0.00 | 0.03 | 0.03 | 81 | 1015.2 |
| 20260505214033 | 61 | 318 | 1.0 | 2.0 | 0.00 | 0.03 | 0.03 | 80 | 1015.4 |
| 20260505213531 | 61 | 195 | 3.0 | 3.0 | 0.00 | 0.03 | 0.03 | 81 | 1015.3 |
| 20260505213026 | 61 | 288 | 0.0 | 0.0 | 0.00 | 0.03 | 0.03 | 81 | 1015.3 |
| 20260505212523 | 61 | 309 | 0.0 | 1.0 | 0.00 | 0.03 | 0.03 | 82 | 1015.2 |
| 20260505212020 | 61 | 285 | 1.0 | 2.0 | 0.00 | 0.03 | 0.03 | 82 | 1015.5 |
| 20260505211518 | 61 | 299 | 0.0 | 1.0 | 0.00 | 0.03 | 0.03 | 83 | 1015.4 |
| 20260505211014 | 61 | 232 | 2.0 | 2.0 | 0.00 | 0.03 | 0.03 | 80 | 1015.4 |
| 20260505210511 | 62 | 291 | 2.0 | 2.0 | 0.00 | 0.03 | 0.03 | 81 | 1015.4 |
| 20260505210008 | 63 | 280 | 2.0 | 2.0 | 0.00 | 0.03 | 0.03 | 79 | 1015.4 |
| 20260505205506 | 62 | 290 | 0.0 | 1.0 | 0.00 | 0.03 | 0.03 | 79 | 1015.5 |
| 20260505205003 | 62 | 266 | 2.0 | 2.0 | 0.00 | 0.03 | 0.03 | 79 | 1015.3 |
| 20260505204501 | 62 | 256 | 1.0 | 1.0 | 0.00 | 0.03 | 0.03 | 78 | 1015.4 |
| 20260505203957 | 62 | 313 | 2.0 | 2.0 | 0.00 | 0.03 | 0.03 | 81 | 1015.3 |
| 20260505203454 | 62 | 244 | 1.0 | 1.0 | 0.00 | 0.03 | 0.03 | 77 | 1015.5 |
| 20260505202950 | 62 | 261 | 2.0 | 2.0 | 0.00 | 0.03 | 0.03 | 80 | 1015.5 |
| 20260505202447 | 62 | 312 | 0.0 | 0.0 | 0.00 | 0.03 | 0.03 | 81 | 1015.5 |
| 20260505201943 | 62 | 323 | 0.0 | 1.0 | 0.00 | 0.03 | 0.03 | 80 | 1015.5 |
| 20260505201440 | 62 | 276 | 2.0 | 2.0 | 0.00 | 0.03 | 0.03 | 79 | 1015.4 |
| 20260505200938 | 61 | 308 | 1.0 | 1.0 | 0.00 | 0.03 | 0.03 | 82 | 1015.5 |
| 20260505200436 | 61 | 286 | 1.0 | 2.0 | 0.00 | 0.03 | 0.03 | 83 | 1015.8 |
| 20260505195931 | 60 | 245 | 3.0 | 3.0 | 0.00 | 0.03 | 0.03 | 81 | 1015.7 |
| 20260505195428 | 60 | 287 | 1.0 | 1.0 | 0.00 | 0.03 | 0.03 | 83 | 1015.7 |
| 20260505194926 | 60 | 223 | 1.0 | 2.0 | 0.00 | 0.03 | 0.03 | 82 | 1015.8 |
| 20260505194423 | 60 | 291 | 2.0 | 2.0 | 0.00 | 0.03 | 0.03 | 81 | 1015.8 |
| 20260505193923 | 60 | 296 | 1.0 | 2.0 | 0.00 | 0.03 | 0.03 | 81 | 1015.5 |
| 20260505193421 | 60 | 303 | 1.0 | 1.0 | 0.00 | 0.03 | 0.03 | 82 | 1015.7 |
| 20260505192918 | 61 | 312 | 0.0 | 0.0 | 0.00 | 0.03 | 0.03 | 81 | 1015.7 |
| 20260505192416 | 61 | 334 | 1.0 | 1.0 | 0.00 | 0.03 | 0.03 | 80 | 1015.8 |
| 20260505191914 | 61 | 281 | 2.0 | 3.0 | 0.00 | 0.03 | 0.03 | 81 | 1015.7 |
| 20260505191412 | 61 | 259 | 2.0 | 2.0 | 0.00 | 0.03 | 0.03 | 81 | 1015.8 |
| 20260505190909 | 61 | 294 | 1.0 | 2.0 | 0.00 | 0.03 | 0.03 | 82 | 1015.4 |
| 20260505190404 | 60 | 321 | 1.0 | 2.0 | 0.00 | 0.03 | 0.03 | 84 | 1015.8 |
| 20260505185859 | 59 | 286 | 0.0 | 1.0 | 0.00 | 0.03 | 0.03 | 84 | 1016.0 |
| 20260505185356 | 58 | 258 | 1.0 | 2.0 | 0.00 | 0.03 | 0.03 | 86 | 1015.8 |
| 20260505184852 | 58 | 270 | 2.0 | 2.0 | 0.00 | 0.03 | 0.03 | 86 | 1015.7 |
| 20260505184350 | 57 | 285 | 0.0 | 1.0 | 0.00 | 0.03 | 0.03 | 86 | 1015.8 |
| 20260505183847 | 57 | 283 | 0.0 | 1.0 | 0.00 | 0.03 | 0.03 | 86 | 1015.9 |
| 20260505183343 | 58 | 294 | 3.0 | 3.0 | 0.00 | 0.03 | 0.03 | 86 | 1015.7 |
| 20260505182840 | 57 | 285 | 0.0 | 1.0 | 0.00 | 0.03 | 0.03 | 87 | 1015.7 |
| 20260505182337 | 57 | 262 | 1.0 | 2.0 | 0.00 | 0.03 | 0.03 | 86 | 1015.3 |
| 20260505181834 | 57 | 259 | 1.0 | 2.0 | 0.00 | 0.03 | 0.03 | 85 | 1015.5 |
| 20260505181331 | 58 | 237 | 2.0 | 2.0 | 0.00 | 0.03 | 0.03 | 85 | 1015.4 |
| 20260505180827 | 60 | 246 | 5.0 | 6.0 | 0.00 | 0.03 | 0.03 | 82 | 1015.4 |
| 20260505180324 | 60 | 260 | 1.0 | 1.0 | 0.00 | 0.03 | 0.03 | 82 | 1015.4 |
| 20260505175820 | 59 | 311 | 0.0 | 0.0 | 0.00 | 0.03 | 0.03 | 80 | 1015.5 |
| 20260505175317 | 59 | 225 | 1.0 | 2.0 | 0.00 | 0.03 | 0.03 | 81 | 1015.3 |
| 20260505174814 | 59 | 322 | 1.0 | 2.0 | 0.00 | 0.03 | 0.03 | 83 | 1015.4 |
| 20260505174311 | 58 | 294 | 0.0 | 0.0 | 0.00 | 0.03 | 0.03 | 83 | 1015.1 |
| 20260505173807 | 57 | 297 | 1.0 | 1.0 | 0.00 | 0.03 | 0.03 | 84 | 1015.0 |
| 20260505173303 | 58 | 279 | 1.0 | 1.0 | 0.00 | 0.03 | 0.03 | 85 | 1015.3 |
| 20260505172800 | 57 | 297 | 0.0 | 0.0 | 0.00 | 0.03 | 0.03 | 85 | 1015.1 |
| 20260505172258 | 57 | 243 | 2.0 | 2.0 | 0.00 | 0.03 | 0.03 | 85 | 1015.2 |
| 20260505171752 | 56 | 253 | 2.0 | 3.0 | 0.00 | 0.03 | 0.03 | 85 | 1015.2 |
| 20260505171249 | 57 | 300 | 3.0 | 5.0 | 0.00 | 0.03 | 0.03 | 85 | 1015.1 |
| 20260505170746 | 57 | 308 | 0.0 | 0.0 | 0.00 | 0.03 | 0.03 | 87 | 1015.1 |
| 20260505170243 | 57 | 301 | 0.0 | 0.0 | 0.00 | 0.03 | 0.03 | 85 | 1015.2 |
| 20260505165738 | 57 | 306 | 2.0 | 2.0 | 0.00 | 0.03 | 0.03 | 86 | 1015.1 |
| 20260505165235 | 56 | 300 | 0.0 | 0.0 | 0.00 | 0.03 | 0.03 | 88 | 1015.2 |
| 20260505164730 | 56 | 313 | 0.0 | 1.0 | 0.00 | 0.03 | 0.03 | 88 | 1015.0 |
| 20260505164228 | 57 | 245 | 1.0 | 1.0 | 0.00 | 0.03 | 0.03 | 88 | 1015.2 |
| 20260505163726 | 56 | 317 | 0.0 | 0.0 | 0.00 | 0.03 | 0.03 | 87 | 1015.0 |
| 20260505163224 | 56 | 268 | 2.0 | 2.0 | 0.00 | 0.03 | 0.03 | 87 | 1015.0 |
| 20260505162721 | 56 | 318 | 0.0 | 0.0 | 0.00 | 0.03 | 0.03 | 88 | 1015.0 |
| 20260505162218 | 56 | 218 | 5.0 | 6.0 | 0.00 | 0.03 | 0.03 | 87 | 1015.0 |
| 20260505161715 | 56 | 263 | 1.0 | 1.0 | 0.00 | 0.03 | 0.03 | 88 | 1015.0 |
| 20260505161213 | 55 | 314 | 1.0 | 2.0 | 0.00 | 0.03 | 0.03 | 89 | 1014.6 |
| 20260505160710 | 56 | 310 | 1.0 | 1.0 | 0.00 | 0.03 | 0.03 | 89 | 1014.7 |
| 20260505160207 | 56 | 261 | 3.0 | 3.0 | 0.00 | 0.03 | 0.03 | 87 | 1014.9 |
| 20260505153146 | 53 | 288 | 1.0 | 1.0 | 0.00 | 0.03 | 0.03 | 99 | 1014.6 |
| 20260505152643 | 53 | 295 | 1.0 | 2.0 | 0.00 | 0.03 | 0.03 | 99 | 1014.7 |
| 20260505152139 | 52 | 322 | 3.0 | 5.0 | 0.00 | 0.03 | 0.03 | 99 | 1014.7 |
| 20260505151634 | 52 | 315 | 0.0 | 1.0 | 0.00 | 0.03 | 0.03 | 99 | 1014.6 |
| 20260505151132 | 52 | 318 | 0.0 | 0.0 | 0.00 | 0.03 | 0.03 | 99 | 1014.6 |
| 20260505150628 | 52 | 288 | 0.0 | 0.0 | 0.00 | 0.03 | 0.03 | 99 | 1014.6 |
| 20260505150125 | 51 | 271 | 0.0 | 0.0 | 0.00 | 0.03 | 0.03 | 99 | 1014.6 |
| 20260505140553 | 50 | 283 | 0.0 | 0.0 | 0.00 | 0.03 | 0.03 | 99 | 1014.2 |
| 20260505125007 | 50 | 273 | 0.0 | 1.0 | 0.00 | 0.03 | 0.03 | 99 | 1013.6 |
| 20260505124504 | 50 | 286 | 0.0 | 1.0 | 0.00 | 0.03 | 0.03 | 99 | 1013.7 |
| 20260505124000 | 50 | 290 | 1.0 | 2.0 | 0.00 | 0.03 | 0.03 | 99 | 1013.7 |
| 20260505123456 | 50 | 292 | 0.0 | 0.0 | 0.00 | 0.03 | 0.03 | 99 | 1013.6 |
| 20260505122953 | 50 | 283 | 1.0 | 1.0 | 0.00 | 0.03 | 0.03 | 99 | 1013.6 |
| 20260505122450 | 50 | 270 | 0.0 | 1.0 | 0.00 | 0.03 | 0.03 | 99 | 1013.9 |
| 20260505121947 | 50 | 281 | 0.0 | 0.0 | 0.00 | 0.03 | 0.03 | 99 | 1013.8 |
| 20260505121443 | 50 | 287 | 0.0 | 0.0 | 0.00 | 0.03 | 0.03 | 99 | 1013.8 |
| 20260505120939 | 50 | 283 | 0.0 | 0.0 | 0.00 | 0.03 | 0.03 | 99 | 1013.7 |
| 20260505120436 | 50 | 280 | 0.0 | 0.0 | 0.00 | 0.03 | 0.03 | 99 | 1013.7 |
| 20260505115935 | 50 | 282 | 0.0 | 0.0 | 0.00 | 0.03 | 0.03 | 99 | 1013.9 |
| 20260505115432 | 50 | 288 | 0.0 | 0.0 | 0.00 | 0.03 | 0.03 | 99 | 1013.8 |
| 20260505114930 | 50 | 275 | 0.0 | 0.0 | 0.00 | 0.03 | 0.03 | 99 | 1013.7 |
| 20260505114426 | 50 | 279 | 0.0 | 0.0 | 0.00 | 0.03 | 0.03 | 99 | 1013.9 |
| 20260505113922 | 50 | 280 | 0.0 | 0.0 | 0.00 | 0.03 | 0.03 | 99 | 1013.9 |
| 20260505113419 | 50 | 280 | 0.0 | 0.0 | 0.00 | 0.03 | 0.03 | 99 | 1013.7 |
| 20260505112915 | 50 | 280 | 0.0 | 1.0 | 0.00 | 0.03 | 0.03 | 99 | 1013.8 |
| 20260505112413 | 50 | 283 | 0.0 | 0.0 | 0.00 | 0.03 | 0.03 | 99 | 1014.0 |
| 20260505111908 | 50 | 281 | 0.0 | 1.0 | 0.00 | 0.03 | 0.03 | 99 | 1013.9 |
| 20260505111403 | 50 | 286 | 0.0 | 0.0 | 0.00 | 0.03 | 0.03 | 99 | 1013.9 |
| 20260505110859 | 50 | 282 | 0.0 | 0.0 | 0.00 | 0.03 | 0.03 | 99 | 1013.9 |
| 20260505110351 | 50 | 275 | 0.0 | 0.0 | 0.00 | 0.03 | 0.03 | 99 | 1013.9 |
| 20260505101821 | 50 | 292 | 0.0 | 0.0 | 0.00 | 0.03 | 0.03 | 99 | 1014.0 |
| 20260505101316 | 50 | 293 | 0.0 | 0.0 | 0.00 | 0.03 | 0.03 | 99 | 1013.7 |
| 20260505100812 | 50 | 269 | 0.0 | 0.0 | 0.00 | 0.03 | 0.03 | 99 | 1014.0 |
| 20260505100309 | 50 | 288 | 0.0 | 0.0 | 0.00 | 0.03 | 0.03 | 99 | 1014.0 |
| 20260505095805 | 50 | 288 | 0.0 | 0.0 | 0.00 | 0.03 | 0.03 | 99 | 1013.7 |
| 20260505095304 | 50 | 287 | 0.0 | 0.0 | 0.00 | 0.03 | 0.03 | 99 | 1013.6 |
| 20260505094758 | 50 | 300 | 0.0 | 0.0 | 0.00 | 0.03 | 0.03 | 99 | 1013.4 |
| 20260505094255 | 50 | 273 | 0.0 | 1.0 | 0.00 | 0.03 | 0.03 | 99 | 1013.5 |
| 20260505093750 | 50 | 278 | 1.0 | 1.0 | 0.00 | 0.03 | 0.03 | 99 | 1013.6 |
| 20260505093248 | 50 | 303 | 0.0 | 0.0 | 0.00 | 0.03 | 0.03 | 99 | 1013.7 |
| 20260505092745 | 50 | 280 | 1.0 | 2.0 | 0.00 | 0.03 | 0.03 | 99 | 1013.5 |
| 20260505092244 | 50 | 295 | 0.0 | 1.0 | 0.00 | 0.03 | 0.03 | 99 | 1013.8 |
| 20260505091740 | 50 | 257 | 0.0 | 1.0 | 0.00 | 0.03 | 0.03 | 99 | 1013.9 |
| 20260505091239 | 50 | 292 | 0.0 | 0.0 | 0.00 | 0.03 | 0.03 | 99 | 1014.2 |
| 20260505090735 | 50 | 266 | 3.0 | 5.0 | 0.00 | 0.03 | 0.03 | 99 | 1014.3 |
| 20260505090234 | 50 | 270 | 0.0 | 1.0 | 0.00 | 0.03 | 0.03 | 99 | 1014.3 |
| 20260505085731 | 50 | 287 | 0.0 | 1.0 | 0.07 | 0.03 | 0.03 | 99 | 1014.4 |
| 20260505085229 | 50 | 273 | 0.0 | 1.0 | 0.07 | 0.03 | 0.03 | 99 | 1014.1 |
| 20260505084726 | 50 | 287 | 1.0 | 2.0 | 0.05 | 0.02 | 0.02 | 99 | 1014.2 |
| 20260505084225 | 50 | 330 | 1.0 | 2.0 | 0.05 | 0.02 | 0.02 | 99 | 1014.2 |
| 20260505083722 | 50 | 266 | 1.0 | 2.0 | 0.00 | 0.01 | 0.01 | 99 | 1014.2 |
| 20260505083218 | 50 | 309 | 0.0 | 0.0 | 0.07 | 0.01 | 0.01 | 99 | 1014.2 |
| 20260505082714 | 50 | 295 | 0.0 | 0.0 | 0.07 | 0.01 | 0.01 | 99 | 1014.2 |
| 20260505082212 | 50 | 276 | 1.0 | 2.0 | 0.00 | 0.00 | 0.00 | 99 | 1014.3 |
| 20260505081707 | 50 | 300 | 1.0 | 1.0 | 0.00 | 0.00 | 0.00 | 99 | 1014.1 |
| 20260505081205 | 50 | 289 | 0.0 | 1.0 | 0.00 | 0.00 | 0.00 | 99 | 1014.4 |
| 20260505080702 | 50 | 287 | 0.0 | 0.0 | 0.00 | 0.00 | 0.00 | 99 | 1014.5 |
| 20260505080158 | 50 | 319 | 0.0 | 0.0 | 0.00 | 0.00 | 0.00 | 99 | 1014.5 |
| 20260505075654 | 50 | 315 | 0.0 | 0.0 | 0.00 | 0.00 | 0.00 | 99 | 1014.8 |
| 20260505075151 | 50 | 289 | 0.0 | 1.0 | 0.00 | 0.00 | 0.00 | 99 | 1014.5 |
| 20260505074648 | 50 | 294 | 1.0 | 2.0 | 0.00 | 0.00 | 0.00 | 99 | 1014.5 |
| 20260505074145 | 50 | 279 | 0.0 | 1.0 | 0.00 | 0.00 | 0.00 | 99 | 1014.5 |
| 20260505073643 | 50 | 292 | 1.0 | 1.0 | 0.00 | 0.00 | 0.00 | 99 | 1014.3 |
| 20260505073141 | 50 | 301 | 0.0 | 1.0 | 0.00 | 0.00 | 0.00 | 99 | 1014.2 |
| 20260505072636 | 50 | 312 | 1.0 | 1.0 | 0.00 | 0.00 | 0.00 | 99 | 1014.5 |
| 20260505072133 | 50 | 335 | 1.0 | 1.0 | 0.00 | 0.00 | 0.00 | 99 | 1014.3 |
| 20260505071628 | 50 | 286 | 0.0 | 0.0 | 0.00 | 0.00 | 0.00 | 99 | 1014.4 |